User: anonymous
Location: Deer Path Park
(40.5570°N, 74.8450°W)
Time: 15:03:37
(UTC-04:00)
Language:

Iridium 49 - Orbit

View from above orbital plane
View from above orbital plane
View from above satellite
View from above satellite

Ground track
Ground track

The orbit data is extracted from the following two-line orbital elements,

1 25108U 97082E   14107.36761072  .00000513  00000-0  17603-3 0  7286
2 25108 086.3995 018.9786 0002412 093.1825 044.8584 14.34213333854562
Epoch (UTC): 17 April 2014 08:49:21
Eccentricity: 0.0002412
inclination: 86.3995°
perigee height: 776 km
apogee height: 779 km
right ascension of ascending node: 18.9786°
argument of perigee: 93.1825°
revolutions per day: 14.34213333
mean anomaly at epoch: 44.8584°
orbit number at epoch: 85456

The dashed part of the orbit path shows where the satellite is in the earth's shadow,  

DLR